Weather in Buix

Switzerland     47°28′47″N   7°01′51″E
temp.,
°C
wind,
m/s
gust,
m/s
humid.,
%
clouds,
%
prec.,
mm/h
press.,
hPa
HPBL,
m
8 may, sat
sat823:00+5s116699 0.0 102111
02:00+3ese11766 0.0 102110
05:00+3se1184100 0.0 102010
08:00+6ene117964 0.0 102097
11:00+13nnw136316 0.0 1018689
14:00+17nnw245998 0.0 1015974
17:00+19wnw4763100 0.0 10131074
20:00+15ene0080100 0.0 101311
9 may, sun
sun923:00+10se228567 0.0 101312
02:00+10se2174100 0.0 101212
05:00+9ese1177100 0.0 101111
08:00+12e117858 0.0 101153
11:00+18ene226599 0.0 1009358
14:00+22ne225853 0.0 1008683
17:00+22nne3266100 0.0 1006465
20:00+18n12818 0.1 100615
10 may, mon
mon1023:00+15sse2281100 0.1 100514
02:00+11s1177100 0.1 100513
05:00+11wsw51089100 0.2 1007256
08:00+13sw479393 0.6 1009312
11:00+10w4998100 2.1 1011440
14:00+11wsw2391100 8.0 1012433
17:00+11w1194100 1.2 1010220
20:00+10w4698100 3.5 1010317
11 may, tue
tue1123:00+9wsw2599100 5.8 1012244
02:00+9se1196100 12.4 101120
05:00+9e1197100 3.1 101027
08:00+9ene3597100 3.6 1009209
11:00+9nnw1198100 1.9 1009142
14:00+9ene2398100 11.7 1009147
17:00+10e2394100 2.4 1009278
20:00+8wsw41097100 9.8 1012459
12 may, wed
wed1223:00+9w61197100 1.3 1014646
02:00+8wsw51194100 2.5 1015571
05:00+7wsw4998100 0.1 1016566
08:00+7w4897100 0.3 1016547
11:00+9w458796 0.1 1016726
14:00+13wnw4465100 0.3 10131495
17:00+13w446324 0.1 10131296
20:00+10w248193 0.1 101378